Weather History for Jefferson City, MO

Change the Weather History Date:

Monday, July 15, 2013

  Actual Average Record
Temperature  
Mean Temperature 80 °F -  
Max Temperature 91 °F 91 °F 110 °F (1936)
Min Temperature 70 °F 67 °F 43 °F (1967)
Cooling Degree Days 15    
Growing Degree Days 30 (Base 50)    
Moisture  
Dew Point 69 °F    
Average Humidity 75    
Maximum Humidity 91    
Minimum Humidity 45    
Precipitation  
Precipitation 0.01 in - - ()
Sea Level Pressure  
Sea Level Pressure 30.13 in    
Wind  
Wind Speed 4 mph (ESE)    
Max Wind Speed 13 mph    
Max Gust Speed -    
Visibility 10 miles    
Events      
Averages and records for this station are not official NWS values.
T = Trace of Precipitation, MM = Missing Value Source: NWS Daily Summary

Daily Weather History Graph

Daily Weather History Graph

Search for Another Location

Airport:

Trip Planner

Search our weather history database for the weather conditions in past years. The results will help you decide how hot, cold, wet, or windy it might be!

Date:

Astronomy

Jul. 15, 2013 Rise Set
Actual Time 5:56 AM CDT 8:32 PM CDT
Civil Twilight 5:25 AM CDT 9:03 PM CDT
Nautical Twilight 4:47 AM CDT 9:41 PM CDT
Astronomical Twilight 4:04 AM CDT 10:24 PM CDT
Moon 1:10 PM CDT (7/15) No Moon Set
Length of Visible Light 15h 37m
Length of Day
14h 35m
Waxing Crescent, 45% of the Moon is Illuminated
Jul 15
Waxing Crescent
Jul 15
First Quarter
Jul 22
Full
Jul 29
Last Quarter
Aug 6
New

Hourly Weather History & Observations

Time (CDT) Temp. Heat Index Dew Point Humidity Pressure Visibility Wind Dir Wind Speed Gust Speed Precip Events Conditions
12:53 AM 75.9 °F - 68.0 °F 76% 30.09 in 10.0 mi East 5.8 mph - N/A   Clear
1:53 AM 73.9 °F - 68.0 °F 82% 30.10 in 10.0 mi Calm Calm - N/A   Clear
2:53 AM 72.0 °F - 66.9 °F 84% 30.10 in 10.0 mi Calm Calm - N/A   Clear
3:53 AM 71.1 °F - 66.9 °F 87% 30.11 in 10.0 mi Calm Calm - N/A   Clear
4:53 AM 70.0 °F - 66.9 °F 90% 30.11 in 10.0 mi Calm Calm - N/A   Partly Cloudy
5:53 AM 71.1 °F - 66.9 °F 87% 30.12 in 10.0 mi Calm Calm - N/A   Clear
6:53 AM 72.0 °F - 68.0 °F 87% 30.14 in 10.0 mi Calm Calm - N/A   Clear
7:53 AM 75.0 °F - 68.0 °F 79% 30.15 in 10.0 mi East 5.8 mph - N/A   Clear
8:53 AM 79.0 °F - 69.1 °F 72% 30.16 in 10.0 mi ESE 6.9 mph - N/A   Partly Cloudy
9:53 AM 81.0 °F 84.1 °F 69.1 °F 67% 30.16 in 10.0 mi South 3.5 mph - N/A   Partly Cloudy
10:53 AM 82.9 °F 85.8 °F 68.0 °F 60% 30.17 in 10.0 mi SE 9.2 mph - N/A   Mostly Cloudy
11:53 AM 84.9 °F 88.2 °F 68.0 °F 57% 30.16 in 10.0 mi SSE 10.4 mph - N/A   Partly Cloudy
12:53 PM 84.9 °F 87.6 °F 66.9 °F 55% 30.14 in 10.0 mi SE 8.1 mph - N/A   Mostly Cloudy
1:53 PM 88.0 °F 90.7 °F 66.9 °F 49% 30.12 in 10.0 mi ESE 9.2 mph - N/A   Clear
2:53 PM 90.0 °F 92.4 °F 66.0 °F 45% 30.11 in 10.0 mi SE 12.7 mph - N/A   Scattered Clouds
3:53 PM 89.1 °F 92.1 °F 66.9 °F 48% 30.10 in 10.0 mi East 10.4 mph - N/A   Partly Cloudy
4:53 PM 78.1 °F - 72.0 °F 81% 30.13 in 10.0 mi ENE 9.2 mph - 0.01 in   Overcast
5:53 PM 78.1 °F - 72.0 °F 81% 30.12 in 10.0 mi ENE 8.1 mph - 0.00 in   Partly Cloudy
6:53 PM 78.1 °F - 72.0 °F 81% 30.12 in 10.0 mi East 4.6 mph - N/A   Partly Cloudy
7:53 PM 77.0 °F - 72.0 °F 84% 30.12 in 10.0 mi East 6.9 mph - N/A   Clear
8:53 PM 75.9 °F - 71.1 °F 85% 30.14 in 10.0 mi SE 3.5 mph - N/A   Mostly Cloudy
9:53 PM 75.0 °F - 71.1 °F 87% 30.17 in 10.0 mi East 4.6 mph - N/A   Mostly Cloudy
10:53 PM 75.0 °F - 71.1 °F 87% 30.17 in 10.0 mi ESE 3.5 mph - N/A   Mostly Cloudy
11:53 PM 73.9 °F - 71.1 °F 91% 30.18 in 10.0 mi ESE 3.5 mph - N/A   Clear